Weather History for Marshfield, WI

Change the Weather History Date:

Sunday, September 29, 2013

  Actual Average Record
Temperature  
Mean Temperature 56 °F -  
Max Temperature 71 °F 65 °F 86 °F (1922)
Min Temperature 42 °F 42 °F 20 °F (1967)
Degree Days  
Heating Degree Days 9    
Growing Degree Days 6 (Base 50)    
Moisture  
Dew Point 45 °F    
Average Humidity 76    
Maximum Humidity 100    
Minimum Humidity 38    
Precipitation  
Precipitation 0.00 in - - ()
Sea Level Pressure  
Sea Level Pressure 29.99 in    
Wind  
Wind Speed 6 mph (SW)    
Max Wind Speed 15 mph    
Max Gust Speed 21 mph    
Visibility 8 miles    
Events Fog    
Averages and records for this station are not official NWS values.
T = Trace of Precipitation, MM = Missing Value Source: NWS Daily Summary

Daily Weather History Graph

Daily Weather History Graph

Search for Another Location

Airport:

Trip Planner

Search our weather history database for the weather conditions in past years. The results will help you decide how hot, cold, wet, or windy it might be!

Date:

Astronomy

Sep. 29, 2013 Rise Set
Actual Time 6:56 AM CDT 6:44 PM CDT
Civil Twilight 6:27 AM CDT 7:13 PM CDT
Nautical Twilight 5:53 AM CDT 7:47 PM CDT
Astronomical Twilight 5:19 AM CDT 8:21 PM CDT
Moon 1:26 AM CDT (9/29) 3:50 PM CDT (9/29)
Length of Visible Light 12h 46m
Length of Day
11h 48m
Waning Crescent, 27% of the Moon is Illuminated
Sep 29
Waning Crescent
Oct 4
New
Oct 11
First Quarter
Oct 18
Full
Oct 26
Last Quarter

Hourly Weather History & Observations

Time (CDT) Temp. Windchill Dew Point Humidity Pressure Visibility Wind Dir Wind Speed Gust Speed Precip Events Conditions
12:54 AM 48.9 °F - 46.9 °F 93% 29.95 in 10.0 mi West 8.1 mph - N/A   Clear
1:54 AM 48.0 °F - 46.0 °F 93% 29.98 in 10.0 mi West 6.9 mph - N/A   Clear
2:54 AM 46.9 °F - 45.0 °F 93% 29.98 in 10.0 mi West 4.6 mph - N/A   Clear
3:49 AM 44.6 °F 43.1 °F 42.8 °F 93% 29.98 in 2.0 mi WSW 3.5 mph - N/A   Clear
3:54 AM 44.1 °F - 43.0 °F 96% 29.99 in 3.0 mi Calm Calm - N/A   Clear
4:54 AM 44.1 °F 41.5 °F 42.1 °F 93% 30.00 in 10.0 mi WSW 4.6 mph - N/A   Clear
5:45 AM 44.6 °F 43.1 °F 42.8 °F 93% 29.99 in 1.8 mi SW 3.5 mph - N/A   Clear
5:52 AM 44.6 °F 43.1 °F 42.8 °F 93% 30.00 in 1.0 mi SW 3.5 mph - N/A   Mist
5:54 AM 43.0 °F 41.3 °F 42.1 °F 97% 30.01 in 0.8 mi SW 3.5 mph - N/A   Mist
6:54 AM 42.1 °F 39.2 °F 41.0 °F 96% 30.03 in 0.5 mi SW 4.6 mph - N/A Fog Fog
7:46 AM 44.6 °F 42.2 °F 42.8 °F 93% 30.02 in 1.2 mi SSW 4.6 mph - N/A   Scattered Clouds
7:49 AM 44.6 °F 42.2 °F 44.6 °F 100% 30.02 in 4.0 mi SSW 4.6 mph - N/A   Scattered Clouds
7:54 AM 45.0 °F 42.6 °F 44.1 °F 97% 30.04 in 8.0 mi SSW 4.6 mph - N/A   Scattered Clouds
8:54 AM 50.0 °F - 48.0 °F 93% 30.04 in 10.0 mi SSW 3.5 mph - N/A   Clear
9:54 AM 55.9 °F - 48.0 °F 75% 30.04 in 10.0 mi SW 8.1 mph - N/A   Clear
10:54 AM 61.0 °F - 48.0 °F 62% 30.04 in 10.0 mi SW 9.2 mph - N/A   Clear
11:54 AM 64.9 °F - 46.9 °F 52% 30.03 in 10.0 mi SW 9.2 mph - N/A   Clear
12:54 PM 68.0 °F - 45.0 °F 43% 30.01 in 10.0 mi SSW 9.2 mph - N/A   Clear
1:54 PM 69.1 °F - 44.1 °F 40% 29.99 in 10.0 mi SW 11.5 mph - N/A   Clear
2:54 PM 70.0 °F - 43.0 °F 38% 29.97 in 10.0 mi SW 13.8 mph 20.7 mph N/A   Clear
3:54 PM 70.0 °F - 44.1 °F 39% 29.96 in 10.0 mi SSW 15.0 mph - N/A   Clear
4:54 PM 69.1 °F - 43.0 °F 39% 29.96 in 10.0 mi South 10.4 mph - N/A   Clear
5:54 PM 66.9 °F - 45.0 °F 45% 29.96 in 10.0 mi South 6.9 mph - N/A   Clear
6:54 PM 60.1 °F - 46.9 °F 62% 29.96 in 10.0 mi South 4.6 mph - N/A   Clear
7:54 PM 55.0 °F - 46.0 °F 72% 29.97 in 10.0 mi South 4.6 mph - N/A   Clear
8:54 PM 55.0 °F - 46.0 °F 72% 29.97 in 10.0 mi South 4.6 mph - N/A   Clear
9:54 PM 54.0 °F - 46.0 °F 75% 29.97 in 10.0 mi South 5.8 mph - N/A   Clear
10:54 PM 51.1 °F - 46.0 °F 83% 29.96 in 10.0 mi South 5.8 mph - N/A   Clear
11:54 PM 50.0 °F - 45.0 °F 83% 29.95 in 10.0 mi South 4.6 mph - N/A   Clear